Карточка аэропорта UOOO

Внимание!
Информация на этой странице в стадии наполнения.
Если вы не увидели какой-то информации, или заметили неточность - пожалуйста сообщите нам!
Спасибо!
Команда RU-STAFF
Название аэропортаАлыкель
Название аэропорта (англ.)Alykel
Превышение574 ft. (175 m.)
Координаты69°19.02', 87°19.02'
Высота перехода1200m
Эшелон переходаQFE>744:FL60;744>QFE>717:FL70;717>QFE:FL80
Коды ответчика5401-5427
Зона ОрВДКрасноярск РПИ (UNKL)
Данные METARUOOO 162000Z 20013MPS 1200 1000NE R19/P2000D -SN BLSN OVC016 M05/M06 Q1002 R19/551032 NOSIG RMK QFE735/0980
Проноз погоды (TAF)UOOO 161954Z 1621/1721 21012G21MPS 2100 -SN BLSN OVC016 TEMPO 1621/1705 1100 -SN BLSN OVC011 BECMG 1700/1703 26008G18MPS BECMG 1706/1710 05003G08MPS 6000 -SN TEMPO 1710/1721 3200 -SN
NOTAMshow/hide NOTAM
AWOS   TABLE

Информация о ВПП

ВПП Длина ВПП (м.) Покрытие Курс ВПП Частота ILS
193430Бетон193110.3
013430Бетон13109.5

Диспетчерские позиции

Позывной Наименование органа УВД Частота
UOOO_TWRНорильск - Старт118.300
UOOO_R_APPНорильск - Круг120.400
UOOO_GNDНорильск - Руление121.700



Спутниковое изображение